Location: Devore Heights
(34.2372°N, 117.4156°W)
Time: 19:07:12
(UTC+00:00)

S-56A Canister/Altair - Pass Details

Date: 20 September 2024
Orbit: 636 x 2487 km, 38.9° (Epoch: 14 October)

Event Time Altitude Azimuth Distance (km) Brightness Sun altitude
Rises 07:12:09 0° 286° (WNW) 4,124 11.5 -54.2°
Enters shadow 07:12:33 - 285° (WNW) 4,007 11.4 -54.2°
Reaches altitude 10° 07:14:48 10° 279° (W) 3,383 - -54.3°
Maximum altitude 07:22:52 40° 213° (SSW) 2,393 - -54.6°
Drops below altitude 10° 07:34:12 10° 151° (SSE) 4,734 - -54.8°
Sets 07:38:43 0° 144° (SE) 5,931 - -54.9°
